Stations météo

Publicité
Rouen, France (7037): Température de l'air & dewpoint: 14.07.2018 12:00:00 - 20.07.2018 12:00:00 (CEST)Rouen, France (7037): Température de l'air 5cm: 14.07.2018 12:00:00 - 20.07.2018 12:00:00 (CEST)Rouen, France (7037): Température de l'air -20cm & Température de l'air -100cm: 14.07.2018 12:00:00 - 20.07.2018 12:00:00 (CEST)Rouen, France (7037): Vitesse du vent & gusts: 14.07.2018 12:00:00 - 20.07.2018 12:00:00 (CEST)Rouen, France (7037): Direction du vent: 14.07.2018 12:00:00 - 20.07.2018 12:00:00 (CEST)Rouen, France (7037): reduced air pressure: 14.07.2018 12:00:00 - 20.07.2018 12:00:00 (CEST)Rouen, France (7037): visibility: 14.07.2018 12:00:00 - 20.07.2018 12:00:00 (CEST)Rouen, France (7037): Ensoleillement: 14.07.2018 12:00:00 - 20.07.2018 12:00:00 (CEST)Rouen, France (7037): Quantités de précipitations: 14.07.2018 12:00:00 - 20.07.2018 12:00:00 (CEST)
Date & Time tt [°C] td [°C] tt 5cm [°C] tt -20cm [°C] tt -100cm [°C] ff [km/h] ff [knt] fx [km/h] fx [knt] dd ppp [hPa] vv [km] sd [min] rr [mm]
20.07.2018 12:00:00 17,9 15,2 19,3 20,2 17,9 6 3 10 5 NE 1014,6 12 0 0,0
20.07.2018 11:00:00 17,9 15,7 18,8 20,2 17,9 8 4 12 6 NNE 1014,6 12 0 0,0
20.07.2018 10:00:00 17,8 15,1 16,3 20,3 17,9 5 3 9 5 N 1014,8 15 0 0,2
20.07.2018 09:00:00 17,5 14,8 16,3 20,4 17,9 4 2 9 5 N 1014,6 13 0 0,0
20.07.2018 08:00:00 17,0 15,5 16,3 20,5 17,9 2 1 10 5 NW 1014,6 13 0 0,0
20.07.2018 07:00:00 17,7 15,3 16,0 20,5 17,9 9 5 12 6 NNE 1014,3 18 0 0,0
20.07.2018 06:00:00 17,0 15,5 16,1 20,6 17,9 5 3 19 10 W 1014,8 14 0 0,0
20.07.2018 05:00:00 17,7 16,0 16,9 20,7 17,9 13 7 19 10 NE 1015,0 19 0 0,2
20.07.2018 04:00:00 17,6 16,6 16,6 20,8 17,9 11 6 15 8 NE 1015,1 11 0 0,2
20.07.2018 03:00:00 17,4 16,6 16,4 20,9 17,9 5 3 10 6 E 1015,5 13 0 1,0
20.07.2018 02:00:00 17,3 16,3 16,8 20,9 17,9 5 3 19 11 SSE 1016,3 3,9 0 2,8
20.07.2018 01:00:00 18,0 16,7 17,3 21,0 17,9 7 4 24 13 SW 1017,1 7 0 1,0
20.07.2018 00:00:00 19,0 16,6 17,8 21,0 17,9 16 9 37 20 WSW 1016,6 16 0 0,2
19.07.2018 23:00:00 21,5 14,2 19,7 21,0 17,9 8 4 13 7 E 1015,9 49 0 0,0
19.07.2018 22:00:00 21,4 15,0 18,3 21,0 17,9 8 4 11 6 N 1015,4 38 0 0,0
19.07.2018 21:00:00 22,7 16,0 21,8 21,0 17,9 0 0 19 10 N 1015,3 30 0 0,0
19.07.2018 20:00:00 23,0 15,8 20,7 20,9 17,9 6 4 27 14 W 1015,2 41 0 0,0
19.07.2018 19:00:00 24,0 14,4 20,5 20,8 17,9 4 2 23 12 SE 1015,0 14 0 0,0
19.07.2018 18:00:00 27,1 11,2 27,9 20,7 17,9 17 9 31 17 E 1014,9 31 17 0,0
19.07.2018 17:00:00 28,0 11,1 30,9 20,4 17,9 13 7 32 17 E 1015,3 33 27 0,0
19.07.2018 16:00:00 29,9 12,3 34,1 20,3 17,9 12 7 29 16 E 1015,7 26 39 0,0
19.07.2018 15:00:00 28,1 12,0 31,2 20,1 17,9 9 5 29 16 E 1016,2 25 28 0,0
19.07.2018 14:00:00 27,4 13,0 32,6 20,0 17,9 15 8 30 16 E 1016,8 30 23 0,0
19.07.2018 13:00:00 27,4 12,6 30,4 19,9 17,9 18 10 30 16 ESE 1017,1 34 25 0,0
19.07.2018 12:00:00 24,5 12,8 27,1 19,9 17,9 16 9 25 14 E 1017,5 43 2 0,0
19.07.2018 11:00:00 22,8 13,3 23,2 19,9 17,9 13 7 19 11 E 1017,8 54 1 0,0
19.07.2018 10:00:00 21,4 12,3 21,9 20,0 17,9 13 7 20 11 E 1018,0 30 1 0,0
19.07.2018 09:00:00 19,7 12,0 19,2 20,0 17,9 15 8 21 12 E 1018,1 34 13 0,0
19.07.2018 08:00:00 18,0 12,0 15,9 20,2 17,9 10 6 18 10 ENE 1018,2 29 26 0,0
19.07.2018 07:00:00 15,5 11,5 13,9 20,3 17,9 13 7 19 10 ENE 1018,0 20 0 0,0
19.07.2018 06:00:00 15,0 11,0 12,6 20,4 17,9 12 7 16 8 ENE 1018,1 39 0 0,0
19.07.2018 05:00:00 15,3 10,5 13,6 20,6 17,9 8 5 18 10 ENE 1018,4 48 0 0,0
19.07.2018 04:00:00 16,3 10,6 14,8 20,7 17,9 14 8 20 11 ENE 1018,3 49 0 0,0
19.07.2018 03:00:00 16,5 9,7 15,0 20,8 17,9 13 7 21 11 NE 1018,5 54 0 0,0
19.07.2018 02:00:00 16,1 8,6 14,4 21,0 17,9 15 8 19 11 ENE 1018,6 57 0 0,0
19.07.2018 01:00:00 17,8 8,1 15,8 21,1 17,9 14 7 20 11 NE 1018,6 59 0 0,0
19.07.2018 00:00:00 18,3 8,3 16,4 21,2 17,9 15 8 27 14 NNE 1018,4 60 0 0,0
18.07.2018 23:00:00 19,3 8,6 17,5 21,3 17,9 18 10 27 15 NNE 1018,0 60 0 0,0
18.07.2018 22:00:00 20,6 8,9 18,9 21,3 17,9 17 9 33 18 NNE 1017,6 51 10 0,0
18.07.2018 21:00:00 22,3 9,1 22,0 21,3 17,9 23 13 35 19 NNE 1017,4 16 60 0,0
18.07.2018 20:00:00 23,7 9,7 26,8 21,3 17,9 26 14 40 21 NNE 1017,1 8 60 0,0
18.07.2018 19:00:00 25,3 10,7 26,9 21,1 17,8 21 11 32 17 N 1016,8 20 27 0,0
18.07.2018 18:00:00 25,3 9,6 28,0 20,9 17,9 10 5 25 14 ENE 1016,9 34 35 0,0
18.07.2018 17:00:00 25,1 10,2 28,6 20,7 17,8 6 4 26 14 ENE 1017,2 50 40 0,0
18.07.2018 16:00:00 26,0 11,4 34,8 20,5 17,9 5 3 24 13 SE 1017,5 32 51 0,0
18.07.2018 15:00:00 26,2 10,8 30,6 20,3 17,9 10 5 21 11 ENE 1017,8 25 43 0,0
18.07.2018 14:00:00 24,8 10,3 30,0 20,1 17,8 7 4 21 11 NNW 1018,3 25 34 0,0
18.07.2018 13:00:00 24,3 10,9 31,6 20,0 17,8 4 2 26 14 ENE 1018,5 39 47 0,0
18.07.2018 12:00:00 22,5 11,9 27,4 20,0 17,8 8 5 16 8 N 1018,8 38 23 0,0
18.07.2018 11:00:00 20,6 11,0 23,8 20,0 17,8 9 5 14 8 NE 1019,1 24 0 0,0
18.07.2018 10:00:00 18,6 10,9 20,1 20,0 17,8 10 5 14 8 NE 1019,6 58 0 0,0
18.07.2018 09:00:00 17,0 11,7 17,3 20,2 17,9 5 3 9 5 NE 1019,5 30 0 0,0
18.07.2018 08:00:00 15,8 12,2 15,0 20,3 17,8 4 2 8 5 E 1019,4 56 0 0,0
18.07.2018 07:00:00 15,2 12,0 12,6 20,4 17,9 8 5 10 5 NNE 1019,3 43 0 0,0
18.07.2018 06:00:00 13,8 11,5 12,4 20,5 17,9 5 3 9 5 E 1019,3 46 0 0,0
18.07.2018 05:00:00 14,3 11,6 10,8 20,6 17,9 7 4 10 5 NE 1019,2 40 0 0,0
18.07.2018 04:00:00 13,6 11,1 11,2 20,8 17,9 7 4 10 5 NE 1019,2 45 0 0,0
18.07.2018 03:00:00 14,5 11,5 10,4 20,9 17,8 8 4 10 5 N 1019,4 60 0 0,0
18.07.2018 02:00:00 14,4 10,6 10,9 21,0 17,8 8 4 10 5 ENE 1019,4 60 0 0,0
18.07.2018 01:00:00 15,3 11,1 13,2 21,1 17,8 9 5 13 7 NE 1019,5 60 0 0,0
18.07.2018 00:00:00 17,7 10,6 13,7 21,3 17,8 10 6 14 8 NNE 1019,2 18 0 0,0
17.07.2018 23:00:00 17,5 10,4 14,0 21,3 17,8 5 3 13 7 N 1018,9 60 0 0,0
17.07.2018 22:00:00 19,2 10,5 18,3 21,3 17,8 11 6 17 9 NW 1018,6 60 0 0,0
17.07.2018 21:00:00 20,2 11,1 20,1 21,3 17,8 11 6 24 13 NNW 1018,4 18 14 0,0
17.07.2018 20:00:00 22,0 10,5 24,0 21,3 17,8 14 8 29 16 NW 1017,8 20 41 0,0
17.07.2018 19:00:00 23,1 9,8 25,0 21,1 17,8 18 10 31 17 NNW 1017,6 3,4 49 0,0
17.07.2018 18:00:00 23,3 9,7 27,6 21,0 17,8 15 8 34 18 WNW 1017,5 4,4 47 0,0
17.07.2018 17:00:00 23,6 9,6 30,9 20,8 17,8 15 8 32 18 WNW 1017,6 4,3 58 0,0
17.07.2018 16:00:00 23,5 9,8 28,9 20,6 17,8 18 10 35 19 W 1018,1 6 54 0,0
17.07.2018 15:00:00 23,2 10,3 27,0 20,5 17,8 15 8 29 16 W 1018,3 9 28 0,0
17.07.2018 14:00:00 22,4 10,2 26,0 20,3 17,8 19 10 32 17 WNW 1018,4 10 25 0,0
17.07.2018 13:00:00 21,6 10,7 28,7 20,2 17,8 13 7 27 15 NW 1018,4 10 52 0,0
17.07.2018 12:00:00 21,1 10,3 28,7 20,2 17,8 12 7 25 14 WNW 1018,4 13 60 0,0
17.07.2018 11:00:00 20,2 11,1 24,1 20,2 17,8 13 7 24 13 WNW 1018,1 15 54 0,0
17.07.2018 10:00:00 19,3 10,3 20,8 20,2 17,8 16 9 24 13 WNW 1018,0 23 55 0,0
17.07.2018 09:00:00 17,8 12,0 17,3 20,4 17,8 13 7 20 11 WNW 1017,9 38 31 0,0
17.07.2018 08:00:00 16,4 12,7 16,2 20,5 17,8 9 5 18 10 NW 1017,6 14 5 0,0
17.07.2018 07:00:00 16,1 13,9 14,6 20,6 17,8 13 7 20 11 WNW 1017,1 20 0 0,0
17.07.2018 06:00:00 16,1 13,8 15,4 20,7 17,8 13 7 26 14 W 1016,5 33 0 0,0
17.07.2018 05:00:00 16,4 13,9 14,6 20,8 17,8 10 5 21 12 WNW 1016,3 35 0 0,0
17.07.2018 04:00:00 16,0 13,5 14,7 20,9 17,8 14 8 26 14 WNW 1016,3 45 0 0,0
17.07.2018 03:00:00 16,1 12,8 14,2 21,1 17,8 11 6 21 11 WNW 1016,4 43 0 0,0
17.07.2018 02:00:00 16,6 11,5 11,7 21,2 17,8 8 5 17 9 NW 1016,5 60 0 0,0
17.07.2018 01:00:00 17,9 10,8 13,3 21,3 17,7 14 7 22 12 NW 1016,4 60 0 0,0
17.07.2018 00:00:00 19,0 9,5 16,4 21,4 17,8 11 6 18 10 NW 1016,0 60 0 0,0
16.07.2018 23:00:00 20,5 9,7 18,6 21,5 17,8 7 4 17 9 NW 1015,5 60 0 0,0
16.07.2018 22:00:00 21,7 11,1 19,4 21,5 17,8 7 4 30 16 NNW 1014,9 60 0 0,0
16.07.2018 21:00:00 23,1 11,2 22,7 21,5 17,8 16 8 26 14 NNW 1014,4 21 1 0,0
16.07.2018 20:00:00 25,0 10,1 26,3 21,4 17,8 13 7 29 15 WNW 1013,5 2,9 47 0,0
16.07.2018 19:00:00 27,3 10,5 33,7 21,3 17,8 14 8 29 16 WNW 1012,9 4,5 60 0,0
16.07.2018 18:00:00 27,6 8,9 34,6 21,1 17,8 17 9 32 17 NW 1013,0 6 60 0,0
16.07.2018 17:00:00 27,7 9,0 35,2 20,9 17,7 18 10 35 19 NW 1012,9 12 58 0,0
16.07.2018 16:00:00 28,4 10,6 33,5 20,7 17,7 14 8 30 16 NNW 1012,9 20 44 0,0
16.07.2018 15:00:00 27,5 9,8 35,1 20,5 17,7 10 5 26 14 WNW 1013,1 19 58 0,0
16.07.2018 14:00:00 27,5 9,3 34,7 20,3 17,7 10 6 24 13 NW 1013,5 25 60 0,0
16.07.2018 13:00:00 25,8 11,5 33,5 20,1 17,7 13 7 23 13 WNW 1013,7 33 60 0,0
16.07.2018 12:00:00 24,7 13,3 30,7 20,1 17,7 9 5 20 11 W 1014,0 32 60 0,0
16.07.2018 11:00:00 23,2 13,4 28,2 20,1 17,7 10 5 18 10 NW 1014,2 36 60 0,0
16.07.2018 10:00:00 21,5 12,3 24,7 20,1 17,7 7 4 15 8 NW 1014,1 45 60 0,0
16.07.2018 09:00:00 19,6 12,8 22,2 20,2 17,7 10 6 18 10 WNW 1014,0 20 60 0,0
16.07.2018 08:00:00 18,2 12,0 15,6 20,3 17,7 5 3 8 5 NNW 1014,1 33 16 0,0
16.07.2018 07:00:00 16,2 11,4 14,6 20,4 17,7 5 3 12 7 NW 1014,4 56 0 0,0
16.07.2018 06:00:00 16,1 10,4 14,5 20,5 17,7 9 5 13 7 NW 1014,3 59 0 0,0
16.07.2018 05:00:00 16,4 10,7 15,1 20,7 17,7 10 5 18 10 NNW 1014,4 57 0 0,0
16.07.2018 04:00:00 16,1 11,7 12,4 20,8 17,7 10 5 16 9 NNW 1014,8 42 0 0,0
16.07.2018 03:00:00 15,4 10,6 12,1 20,9 17,7 9 5 16 8 WNW 1015,4 42 0 0,0
16.07.2018 02:00:00 16,6 10,0 13,8 21,1 17,7 10 5 16 8 NNW 1015,3 54 0 0,0
16.07.2018 01:00:00 17,4 10,3 15,8 21,2 17,7 9 5 15 8 NNW 1015,5 53 0 0,0
16.07.2018 00:00:00 18,2 10,6 16,8 21,3 17,7 9 5 17 9 NNW 1015,5 54 0 0,0
15.07.2018 23:00:00 19,3 11,8 17,9 21,3 17,7 10 5 19 10 N 1015,4 48 0 0,0
15.07.2018 22:00:00 21,0 12,9 19,7 21,3 17,7 11 6 23 13 N 1014,8 48 15 0,0
15.07.2018 21:00:00 23,6 14,0 23,6 21,3 17,7 15 8 26 14 N 1014,3 7 47 0,0
15.07.2018 20:00:00 26,2 13,3 29,3 21,3 17,7 17 9 26 14 N 1013,8 8 60 0,0
15.07.2018 19:00:00 27,3 12,9 33,5 21,2 17,7 11 6 21 11 N 1013,6 9 60 0,0
15.07.2018 18:00:00 26,2 15,0 23,8 21,0 17,7 11 6 25 13 NNW 1014,1 19 18 0,0
15.07.2018 17:00:00 25,3 13,5 27,3 20,8 17,7 14 8 29 16 NNW 1014,5 32 28 0,0
15.07.2018 16:00:00 28,1 12,8 32,2 20,6 17,7 19 10 29 15 E 1014,2 20 26 0,0
15.07.2018 15:00:00 28,4 12,7 35,7 20,3 17,7 10 6 23 12 N 1014,6 18 55 0,0
15.07.2018 14:00:00 28,2 14,4 32,6 20,1 17,7 9 5 14 8 S 1015,0 26 31 0,0
15.07.2018 13:00:00 28,1 13,6 37,3 19,9 17,7 7 4 16 9 NNE 1015,4 24 60 0,0
15.07.2018 12:00:00 26,5 14,3 34,9 19,8 17,7 7 4 13 7 NW 1015,9 38 60 0,0
15.07.2018 11:00:00 24,4 14,2 30,6 19,8 17,7 7 4 13 7 W 1016,3 43 60 0,0
15.07.2018 10:00:00 22,6 14,2 24,7 19,9 17,7 0 0 12 7 N 1016,6 20 60 0,0
15.07.2018 09:00:00 19,4 14,2 19,6 19,9 17,7 6 4 10 6 N 1016,8 12 60 0,0
15.07.2018 08:00:00 16,7 14,2 14,3 20,1 17,7 9 5 13 7 N 1017,0 6 60 0,0
15.07.2018 07:00:00 15,0 13,5 12,7 20,2 17,7 10 5 15 8 N 1016,7 3,7 12 0,0
15.07.2018 06:00:00 14,3 13,0 10,5 20,3 17,7 11 6 13 7 NNW 1017,0 4,9 0 0,0
15.07.2018 05:00:00 14,8 13,0 11,5 20,5 17,7 9 5 13 7 N 1017,1 11 0 0,0
15.07.2018 04:00:00 16,0 12,9 14,7 20,5 17,7 9 5 14 8 N 1017,2 20 0 0,0
15.07.2018 03:00:00 16,5 12,6 14,5 20,7 17,7 8 5 16 9 N 1017,5 35 0 0,0
15.07.2018 02:00:00 17,3 12,2 15,7 20,8 17,7 8 5 18 10 N 1017,8 45 0 0,0
15.07.2018 01:00:00 18,2 12,0 16,3 20,9 17,7 13 7 19 11 N 1018,1 51 0 0,0
15.07.2018 00:00:00 18,9 11,5 16,9 20,9 17,7 13 7 19 11 NNE 1018,0 60 0 0,0
14.07.2018 23:00:00 20,0 11,7 18,1 21,0 17,7 14 7 19 10 N 1017,7 60 0 0,0
14.07.2018 22:00:00 21,8 12,1 20,0 21,1 17,7 13 7 29 16 NNE 1017,4 52 17 0,0
14.07.2018 21:00:00 23,7 12,3 23,6 21,1 17,7 18 10 32 17 N 1017,3 8 60 0,0
14.07.2018 20:00:00 25,1 13,0 26,6 21,0 17,7 22 12 31 17 N 1017,1 11 60 0,0
14.07.2018 19:00:00 27,2 12,8 28,2 20,9 17,7 12 7 24 13 NNE 1017,0 30 40 0,0
14.07.2018 18:00:00 27,7 13,2 29,5 20,8 17,7 13 7 23 13 NNE 1017,3 47 32 0,0
14.07.2018 17:00:00 26,5 13,3 30,6 20,6 17,7 10 6 20 11 N 1017,6 56 9 0,0
14.07.2018 16:00:00 26,8 11,7 30,5 20,4 17,7 4 2 15 8 NE 1017,9 55 27 0,0
14.07.2018 15:00:00 26,0 12,4 30,7 20,2 17,7 5 3 15 8 S 1018,4 18 43 0,0
14.07.2018 14:00:00 26,0 12,8 29,5 20,0 17,7 4 2 16 9 E 1018,8 42 17 0,0
14.07.2018 13:00:00 25,3 13,5 30,6 19,8 17,7 10 5 17 9 NE 1019,1 33 48 0,0
14.07.2018 12:00:00 24,9 14,4 31,7 19,7 17,7 9 5 17 9 ENE 1019,6 27 56 0,0

tt = Température de l'air
td = dewpoint
tt 5cm = Température de l'air 5cm
tt -20cm = Température de l'air -20cm
tt -100cm = Température de l'air -100cm
ff = Vitesse du vent
fx = gusts
dd = Direction du vent
ppp = reduced air pressure
vv = visibility
sd = Ensoleillement
rr = Quantités de précipitations

stations d'obs. à proximité